Regional Weather Roundup
Issued by NWS

Home | Current Version | Previous Version | Text Only | Print | Product List | Glossary On
Versions: 1 2 3 4 5 6 7 8 9 10 11 12 13 14 15 16 17 18 19 20 21 22 23 24 25 26 27 28 29 30 31 32 33 34 35 36 37 38 39 40 41 42 43 44 45 46 47 48 49 50
000
ASHW40 PHFO 020043
RWRHI

WEATHER ROUNDUP FOR HAWAII
NATIONAL WEATHER SERVICE HONOLULU HI
200 PM HST WED APR 01 2015

THIS IS AN AUTOMATED REPORT THAT HAS NOT BEEN QUALITY CONTROLLED.

NOTE..."FAIR" INDICATES FEW OR NO CLOUDS BELOW 12,000 FEET WITH NO
SIGNIFICANT WEATHER AND/OR OBSTRUCTIONS TO VISIBILITY.

* - THESE SITES REPORT LIMITED FIELDS

HIZ001>004-020100-
KAUAI-NIIHAU-

CITY           SKY/WX    TMP DP  RH WIND       PRES   REMARKS
LIHUE APT      MOSUNNY   81  69  67 E14       30.00F
PORT ALLEN*      N/A     82 N/A N/A SE17G23     N/A
POIPU*           N/A     82 N/A N/A NE8G15      N/A
PRINCEVILLE*     N/A     79 N/A N/A MISG        N/A
KOKOLE POINT*  NOT AVBL
MOLOAA DAIRY*  NOT AVBL
WAIMEA HTS*      N/A     86  63  45 SE12G21     N/A
PUU OPAE*        N/A     66  64  94 NW1G10      N/A
PUU LUA*       NOT AVBL
MAKAHA RIDGE*  NOT AVBL
$$

HIZ005>011-020100-
OAHU-

CITY           SKY/WX    TMP DP  RH WIND       PRES   REMARKS
HONOLULU       MOSUNNY   78  64  61 E12       29.95F
KALAELOA       SUNNY     84  67  56 SE8G20    29.97F
KANEOHE MCB    PTSUNNY   81  69  67 E10       29.95F
WHEELER FIELD  FAIR      80  65  60 E14       29.98F
BELLOWS*         N/A    N/A N/A N/A E15         N/A
KAHUKU*          N/A    N/A N/A N/A E10G20      N/A
WHEELER*       NOT AVBL
WAIANAE HARBOR NOT AVBL
DILLINGHAM*      N/A     88  64  45 MISG        N/A
KAHUKU TRN*      N/A     70  59  68 E12G22      N/A
KAWAILOA*        N/A     77  63  61 E9G18       N/A
KII*             N/A     79  70  73 E16         N/A
MAKUA RANGE*     N/A     82  68  61 W7          N/A
OAHU FOREST NW   N/A    N/A N/A N/A CALM        N/A
SCHOFIELD BRK*   N/A     63  48  59 MISG        N/A
SCHOFIELD S*   NOT AVBL
WAIANAE VLY*     N/A    N/A N/A N/A SE5G18      N/A
KUAOKALA*        N/A     81  66  61 CALM        N/A
HONOULIUULI*   NOT AVBL
MOKUOLOE IS*     N/A    N/A N/A N/A MISG        N/A
PALEHUA*         N/A     88  64  45 CALM        N/A
WAIAWA PHB*    NOT AVBL
$$

HIZ012>013-020100-
MOLOKAI-

CITY           SKY/WX    TMP DP  RH WIND       PRES   REMARKS
MOLOKAI AIRPT  MOSUNNY   81  66  60 NE14G24   29.97F
KALAUPAPA      NOT AVBL
MAKAPULAPAI*     N/A     81  68  65 E18G26      N/A
MOLOKAI 1*       N/A     75  61  60 NE6G23      N/A
PUU ALII*        N/A     68  59  74 E2G13       N/A
$$

HIZ016-020100-
KAHOOLAWE-

CITY           SKY/WX    TMP DP  RH WIND       PRES   REMARKS
KAHOOLAWE*       N/A     75 N/A N/A E23G35      N/A
HAKIOAWA*        N/A     78  64  61 MISG      30.38F
HONOKANAIA*      N/A     83  62  49 NE18G35   29.96F
KANELOA*         N/A     79  66  65 MISG      29.21F
KEALIALALO*      N/A    N/A N/A N/A E21G39    29.95F
LUA MAKIKA*    NOT AVBL
$$

HIZ014>015-020100-
LANAI-

CITY           SKY/WX    TMP DP  RH WIND       PRES   REMARKS
LANAI CITY     PTSUNNY   75  64  69 W8        30.01F
LANAI 1*         N/A     64  63  94 NE14G24     N/A
$$

HIZ017>028-020100-
MAUI-

CITY           SKY/WX    TMP DP  RH WIND       PRES   REMARKS
KAHULUI        MOSUNNY   86  67  52 E17G28    29.93F
KAPALUA-W MAUI MOSUNNY   82  66  57 NE20G26   29.96F
HANA AIRPORT   MOSUNNY   81  68  65 E12       30.00F
HANA*            N/A     81 N/A N/A E10G18      N/A
HALEAKALA SUMM   N/A     57  37  47 NW6         N/A
MAALAEA BAY*   NOT AVBL
HALEAKALA*     NOT AVBL
KAUPO GAP*       N/A     73  59  60 SE12G25     N/A
KULA 1*          N/A     63  55  74 W5G10       N/A
$$

HIZ023>026-020100-
BIG ISLAND OF HAWAII COAST AND LOWER SLOPES-

CITY           SKY/WX    TMP DP  RH WIND       PRES   REMARKS
KAILUA KONA    MOSUNNY   83  67  58 SW15      29.92F
HILO           MOSUNNY   83  65  54 E12       29.99F
HONOKAA*       NOT AVBL
KAWAIHAE MWT*    N/A     84 N/A N/A W10         N/A
KAWAIHAE*        N/A     79 N/A N/A W12         N/A
SOUTH POINT*     N/A     79 N/A N/A E22G31      N/A
UPOLU AIRPORT*   N/A    N/A N/A N/A NE22G31     N/A
KAMUELA*       CLEAR     75  59  57 NE16      30.02F
HAKALAU*         N/A     60  51  71 SE9         N/A
KALOKO-HONOKO*   N/A     84  66  54 S9G16     29.91F
PALI 2*          N/A     79  52  38 NE13G22     N/A
KEALAKOMO*       N/A     82  66  57 E20G28      N/A
KAUPULEHU*       N/A     84  61  45 SW15G25     N/A
KAPAPALA*        N/A     78  62  57 E9G22       N/A
LOWER KAHUKU*    N/A    N/A N/A N/A NE5G16      N/A
PUHE CS*         N/A     86  68  54 W5G12       N/A
PUHO CS*         N/A     84  63  48 SW3G12      N/A
PTA KEAMUKU*     N/A     75  55  50 CALM        N/A
WAIKOLOA*        N/A     82  61  47 W13G18      N/A
$$

HIZ027>028-020100-
BIG ISLAND OF HAWAII INTERIOR AND SUMMMITS-

CITY           SKY/WX    TMP DP  RH WIND       PRES   REMARKS
BRADSHAW FIELD PTSUNNY   65  49  56 SE2       30.25F
MK VISITOR CEN NOT AVBL
MAUNA KEA*       N/A     43  28  56 SE8         N/A
MAUNA LOA*       N/A     41  39  93 MISG        N/A
MAUNA LOA 1*   NOT AVBL
PTA KIPUKA*      N/A     70  52  52 NW10G18     N/A
PTA RANGE 17*    N/A    N/A N/A N/A W12G21      N/A
PTA WEST*        N/A     75  54  46 NW14G21     N/A
NENE CABIN*      N/A     57  48  72 E8G17       N/A
AHUMOA*          N/A     66  44  45 NW10G17     N/A
PTA PORTABLE*  NOT AVBL
PUU MALI*        N/A    N/A N/A N/A N10G22      N/A
$$

HIC003-020100-
NORTHWEST ISLANDS-

CITY           SKY/WX    TMP DP  RH WIND       PRES   REMARKS
MIDWAY ISLAND  MOSUNNY   73  63  68 NW8       30.03F
MIDWAY NOS*    NOT AVBL
FRENCH FRIGATE NOT AVBL
$$

PHZ110>124-180-020100-
BUOY REPORTS

STATION/POSITION TIME  TEMP    WIND        PRES    WAVE   SWELL
                       AIR SEA DIR/SP/G            HT/PER HT/DIR
                 (UTC) (F)     (DEG/KT/KT) (MB)    (FT/S) (FT/D)
BUOY 51001       NOT AVBL
BUOY 51101       0000   72 72   90/ 12/ 14 1015.3F   7/ 8   7/ 70
BUOY 51100       2300   74 75  110/ 16/ 19 1017.7F
BUOY 51002       0000   78 78   70/ 19/ 25 1012.1F   7/ 9   5/ 80
BUOY 51003       0000   77 78   80/ 10/ 12 1014.5F   7/ 9   7
BUOY 51004       NOT AVBL
BARBERS PT BUOY  NOT AVBL
WAIMEA BAY BUOY  NOT AVBL
KAILUA BAY BUOY  0000      76                N/A     6/ 9   2/ 10
LANAI BUOY       0000      79                N/A     3/13   2/190
BARBERS PT 2     0000      77                N/A     4/11   2/190
PAUWELA MAUI     0000      76                N/A     7/ 9   2/360
HILO             0000      79                N/A     8/ 9   2/120
KANEOHE BAY BUOY 0000      77                N/A     5/11   2/350
HANALEI KAUAI    0000      76                N/A     6/ 8   3/320
KAHULUI HARBOR   0000   79 77   50/ 19/ 23 1013.3F
HONOLULU HARBOR  0000   81 77   50/  6/ 12 1014.2F
KILO NALU        NOT AVBL
HILO HARBOR      0000   82 77   50/ 11/ 13 1014.8F
MOKUOLOE         0000   81 77  100/ 13/ 16 1015.4F
NAWILIWILI       0000   76 77   70/ 12/ 15 1015.0F
WHOTS BUOY       NOT AVBL
BUOY 51028       NOT AVBL
$$

......................KEY........................................
  SKY/WX - SKY CONDITIONS/PRESENT WEATHER
  TMP    - TEMPERATURE IN FAHRENHEIT
  DWPT   - DEWPOINT IN FAHRENHEIT
  RH     - RELATIVE HUMIDITY IN PERCENT
  WIND   - DIRECTION AND SPEED /MPH FOR ISLANDS...KTS FOR BUOYS/
  PRES   - MEAN SEA LEVEL PRESSURE IN INCHES OF HG
  VSB    - VISIBILITY IN MILES
  HX     - HEAT INDEX
  WCI    - WIND CHILL INDEX
  VRB    - VARIABLE WIND DIRECTION
  N/A    - NOT AVAILABLE


USA.gov is the U.S. government's official web portal to all federal, state and local government web resources and services.